Location: Beetenbrück
(52.8113°N, 9.5946°E)
Time: 21:21:16
(UTC+00:00)

Okean 1 Rocket - Pass Details

Date: 14 April 2026
Orbit: 601 x 625 km, 82.5° (Epoch: 12 May)

Event Time Altitude Azimuth Distance (km) Brightness Sun altitude
Exits shadow 23:30:48 49° 333° (NNW) 790 3.8 -27.5°
Drops below altitude 10° 23:34:14 10° 5° (N) 1,967 6.6 -27.4°
Sets 23:36:30 0° 9° (N) 2,879 7.8 -27.4°
